Theta_e
304 304 304 304 304 305 305 306 306 305 304 310 311 316 308 304 302 310 310 315 310 307 303 305 299 300 302 301 300 301 299 297 298 297 298 296 298 297 296 296 296 298 296 296 295 295 292 293 292 294 295 296 299 300 300 300 298 298 296 296 299 297 290 287 289 293 294 296 298 298 299 298 295 296 297 295 292 294 291 289 290 285 287 286 287 283 287
303 303 304 303 304 304 305 305 306 305 304 307 311 312 305 304 302 304 309 315 312 305 294 294 295 300 302 301 299 300 297 297 297 297 298 296 296 296 296 296 297 294 297 296 292 295 287 294 293 293 295 294 300 300 299 300 296 296 296 293 300 289 292 289 285 285 288 291 294 294 297 296 293 292 295 296 295 296 296 295 295 286 288 288 285 280 286
303 303 303 303 303 304 304 305 305 305 304 307 311 307 306 306 310 305 306 309 309 300 300 297 294 297 298 298 296 298 299 299 297 296 295 297 296 295 294 295 297 296 297 295 295 295 293 291 295 295 295 295 299 299 297 299 297 297 300 299 301 292 290 288 281 279 277 277 279 282 285 289 292 294 294 295 294 294 292 286 289 284 288 290 286 285 291
302 302 302 303 303 303 303 304 304 304 304 305 312 309 305 300 292 299 301 304 304 303 303 300 295 294 295 291 293 294 293 296 298 297 294 295 296 296 295 296 297 294 293 292 293 293 296 293 292 293 293 295 297 298 298 297 298 299 297 299 298 291 293 291 288 285 283 286 289 293 293 292 287 290 292 292 294 295 293 290 286 283 287 286 289 289 289
302 302 302 302 302 303 303 303 303 303 304 305 308 310 305 305 294 294 291 299 301 299 300 297 298 293 298 287 296 294 294 295 295 297 292 297 296 296 296 295 293 293 293 293 293 295 294 296 294 293 293 295 296 298 297 297 298 299 297 297 294 290 286 289 290 289 289 290 290 292 292 289 290 289 290 291 291 292 291 286 284 290 285 281 287 290 287
301 302 302 302 302 302 303 303 303 302 303 304 312 304 303 295 299 301 300 292 292 292 294 296 294 296 295 292 297 293 292 293 291 296 297 296 297 293 294 295 295 293 293 294 289 292 292 293 289 294 294 293 294 293 295 295 297 297 296 299 294 290 285 290 290 289 291 292 291 292 291 290 290 290 289 289 291 291 287 287 291 290 284 282 286 288 286
301 301 301 301 302 302 302 303 303 302 302 305 309 302 303 302 300 299 299 296 298 295 295 294 294 293 294 293 295 292 293 293 295 294 294 294 294 295 288 291 293 294 295 294 290 292 287 286 293 292 292 293 294 292 293 295 297 296 294 295 297 292 288 291 290 288 289 290 291 291 290 289 289 289 289 290 290 289 290 290 290 289 287 288 288 288 288
300 300 301 301 301 302 302 302 303 302 301 309 305 302 300 295 296 297 300 300 297 299 297 297 295 294 296 289 292 294 293 292 294 295 294 290 293 297 292 292 293 294 293 293 290 293 293 293 288 293 292 291 293 291 291 290 295 295 293 293 296 291 286 290 290 286 286 289 289 290 289 288 287 288 289 289 289 289 290 289 289 290 288 287 288 287 287
300 300 300 300 301 301 301 302 302 301 301 307 303 301 302 302 303 302 296 293 298 297 297 296 294 291 293 292 294 294 293 292 294 293 295 293 292 294 292 294 294 294 293 294 293 295 295 295 294 294 293 288 294 291 292 295 292 293 292 294 294 293 286 291 289 283 282 287 287 288 288 288 286 286 287 287 287 285 286 286 289 287 285 287 287 285 286
300 300 300 300 300 301 301 301 302 301 302 305 303 299 304 306 307 306 299 291 295 293 296 295 293 289 295 293 292 289 291 294 294 288 292 293 294 294 294 295 293 293 293 291 293 296 296 296 296 296 296 296 295 295 294 294 292 291 291 293 290 291 288 285 285 281 281 286 288 287 285 284 281 282 285 287 288 289 290 290 291 290 290 286 284 284 291
299 299 299 299 300 300 300 300 301 301 304 302 301 299 301 298 297 300 299 291 292 294 293 292 291 294 294 293 291 294 293 292 293 288 288 294 295 297 297 295 292 290 291 295 298 298 297 297 297 297 295 295 294 294 294 294 294 292 291 291 290 291 289 285 288 280 281 285 286 286 282 275 277 288 292 292 288 288 287 287 289 292 293 288 292 292 294
299 299 299 299 299 299 300 300 300 300 300 304 305 303 302 303 301 300 294 288 289 295 293 290 292 294 291 292 293 292 291 292 293 295 291 294 295 296 295 294 293 286 295 300 299 298 298 298 296 296 295 294 293 293 293 292 293 295 294 291 289 288 288 285 288 282 280 284 284 279 274 276 286 292 294 294 293 292 291 292 293 294 296 295 293 292 294
298 298 298 299 299 299 299 300 300 300 300 303 304 300 304 304 300 298 295 291 288 292 291 293 294 293 293 293 293 293 294 294 295 295 294 292 292 293 295 294 292 293 299 297 297 295 290 289 290 291 291 292 292 293 292 292 293 294 294 293 291 286 286 286 284 284 284 281 280 272 274 286 291 292 293 295 294 293 291 289 292 293 293 294 293 293 295
298 298 298 298 298 298 299 299 300 300 300 300 302 301 303 303 298 297 295 291 289 293 295 293 293 293 295 294 293 293 293 294 295 295 292 295 293 293 295 296 296 298 298 298 294 292 288 288 284 286 287 289 289 288 290 293 293 292 292 292 293 291 289 286 282 286 278 280 279 279 286 285 287 285 287 289 287 288 288 283 286 293 294 294 293 294 296
298 298 298 298 298 299 299 299 300 300 300 299 302 301 301 302 301 298 299 295 289 291 293 287 292 293 293 292 293 291 292 292 291 291 294 296 294 296 296 296 298 297 297 294 290 290 286 285 281 280 283 282 278 281 289 287 291 294 294 293 293 292 286 287 282 281 284 280 278 278 278 275 281 289 296 297 298 297 296 287 285 294 294 296 296 294 294
298 298 298 298 298 299 299 299 299 299 299 299 302 301 302 303 303 300 297 293 290 284 292 296 296 294 291 291 292 290 288 288 289 290 291 293 293 295 296 297 298 298 296 293 291 287 285 282 280 280 278 280 285 283 281 287 286 290 293 292 292 292 291 288 284 281 282 279 276 275 273 277 286 289 294 296 297 296 295 287 282 291 297 297 296 293 294
298 297 297 298 298 298 299 299 299 299 299 299 299 300 299 304 300 297 296 296 293 288 295 296 297 295 291 290 294 292 293 289 289 285 285 287 290 291 294 296 299 297 293 290 289 286 283 282 284 283 284 286 282 281 286 284 283 284 289 290 290 288 287 286 282 280 281 280 278 276 280 279 286 290 292 294 295 294 288 276 277 291 293 295 295 294 295
297 297 297 298 299 298 298 299 299 299 298 299 299 298 299 304 303 301 297 294 290 290 296 297 294 292 291 292 289 293 293 292 290 292 288 291 290 290 291 293 290 294 296 287 288 284 283 282 280 281 280 287 287 287 278 284 281 282 283 285 284 284 284 284 280 281 281 280 279 282 282 287 292 292 295 294 296 292 279 274 283 293 293 296 297 295 297
297 298 298 298 298 298 298 298 299 298 298 298 300 299 301 302 302 300 296 292 292 287 295 297 297 294 296 296 294 293 292 291 290 285 285 286 289 293 292 292 293 285 292 287 288 284 282 282 287 285 281 284 287 280 286 282 281 286 286 282 282 282 283 283 283 280 278 280 279 279 282 288 293 294 292 295 289 279 278 288 295 294 295 298 298 297 298
297 298 298 298 298 298 298 298 299 299 298 298 298 296 297 300 302 301 295 291 292 291 294 295 295 292 295 292 291 290 292 292 292 288 286 284 292 291 289 285 291 291 289 290 282 286 283 281 283 286 283 283 286 288 284 284 288 284 284 286 282 282 280 279 279 282 282 281 278 277 273 284 292 292 291 294 283 285 292 293 295 297 295 295 297 298 298
297 298 298 298 298 298 298 298 299 299 299 298 298 297 295 300 300 300 300 295 291 286 290 297 296 295 295 294 295 294 292 288 290 288 290 289 292 289 280 282 288 288 284 286 281 283 284 282 284 283 286 284 285 285 280 282 284 289 287 285 284 288 280 280 281 283 277 277 275 276 284 287 294 291 284 287 290 293 294 295 294 297 296 295 295 297 298
298 298 298 298 298 298 298 298 299 299 299 299 298 297 294 299 301 301 300 298 291 288 291 295 296 295 296 296 295 295 294 293 295 295 290 287 292 289 289 290 289 288 289 290 285 284 286 285 287 283 281 284 288 281 284 280 278 285 289 287 278 287 283 284 280 285 281 280 283 288 290 291 293 293 291 294 296 297 296 296 295 295 295 298 296 296 297
298 298 298 298 298 298 298 298 299 299 299 298 298 297 294 297 298 302 300 292 294 294 296 295 296 296 297 297 298 298 298 299 298 296 295 290 287 290 288 288 288 292 290 291 287 286 287 286 283 286 283 285 282 281 283 283 280 283 281 288 285 290 291 292 287 284 290 290 291 292 291 292 292 294 296 295 295 297 297 295 294 296 298 298 297 297 299
297 298 299 298 298 298 299 299 299 299 298 298 298 297 295 297 298 297 295 294 289 287 290 295 292 289 292 293 295 298 298 298 298 298 299 296 286 286 290 292 293 291 289 292 291 288 287 286 285 287 280 285 286 280 278 278 281 285 283 283 287 290 290 287 282 287 283 279 290 289 289 292 292 294 296 296 298 296 298 297 297 296 297 298 299 299 299
297 297 298 298 298 298 298 299 299 299 298 298 298 299 299 297 298 298 293 285 287 287 282 286 289 294 295 297 297 295 296 298 299 299 297 296 293 288 287 292 294 290 290 293 296 291 289 283 284 283 279 286 285 279 285 281 280 286 280 283 285 283 291 285 286 285 282 282 288 290 292 293 293 293 293 295 295 298 297 298 298 298 299 299 299 299 298
297 297 297 298 298 298 298 299 298 298 298 298 297 296 295 295 299 299 296 294 292 288 283 283 289 297 297 295 294 296 298 298 297 297 297 297 297 296 294 294 294 296 295 294 293 287 286 285 285 284 281 282 289 282 282 285 284 287 283 282 287 288 290 282 287 283 286 289 289 289 290 291 291 292 293 296 296 297 296 296 297 297 297 299 299 299 297
297 297 297 298 298 298 298 298 299 298 298 298 297 297 296 297 299 296 293 292 287 283 286 283 289 293 295 293 295 296 296 296 297 296 295 295 295 296 295 294 292 292 292 291 292 289 287 285 284 281 285 284 287 285 286 284 285 283 282 286 290 287 284 288 286 282 281 282 286 289 283 284 288 291 293 295 297 298 297 297 296 296 296 298 296 297 298
297 297 296 297 298 299 299 299 299 298 298 297 297 297 298 296 297 298 298 296 290 283 284 285 286 290 294 292 296 297 296 296 295 295 294 295 295 295 294 293 293 291 291 288 285 285 285 283 281 286 287 288 284 283 288 289 287 285 284 286 289 286 287 285 283 282 283 288 290 292 291 290 291 293 295 297 298 298 297 297 296 296 298 298 297 296 296
297 297 297 298 299 299 299 299 299 298 298 297 298 296 296 297 299 299 299 300 297 291 288 288 290 289 285 290 295 294 296 297 296 295 295 295 295 294 293 293 292 292 292 289 287 286 285 285 287 285 284 288 286 282 283 280 281 279 284 289 290 292 293 291 289 289 290 291 292 293 291 290 293 295 296 297 298 299 297 297 297 299 299 297 297 297 294
297 298 298 298 299 299 299 299 298 298 298 297 295 293 290 291 298 299 301 300 298 295 286 283 280 285 294 293 293 294 294 295 295 295 294 293 293 293 293 293 293 293 289 286 286 283 286 285 286 290 291 295 283 283 280 280 280 283 288 289 291 292 291 291 291 290 288 293 293 292 293 294 296 297 298 298 299 299 297 296 296 297 298 297 296 296 296
297 298 298 298 299 299 299 298 298 298 297 296 293 287 286 284 294 301 300 300 299 294 288 287 283 288 288 294 293 291 293 293 293 293 293 293 293 293 293 293 292 292 287 287 286 285 286 283 285 286 290 290 287 283 281 280 279 282 287 289 290 290 290 290 292 294 292 292 293 294 295 296 296 296 296 297 298 298 297 297 297 298 297 297 296 296 296
297 298 299 298 298 298 298 298 298 298 297 295 291 290 292 293 296 300 300 298 299 293 286 282 282 283 283 287 292 295 293 293 293 293 292 293 291 293 292 292 288 293 289 286 287 287 285 287 286 287 287 291 288 284 283 281 279 280 287 288 290 291 292 292 292 292 292 295 294 292 292 293 295 293 292 298 298 299 297 296 298 300 296 299 299 298 298
298 298 298 298 298 298 298 298 298 298 297 299 299 298 299 298 297 298 299 299 297 290 292 285 280 282 281 286 291 293 293 292 291 291 289 294 290 292 288 293 293 292 294 289 285 283 287 286 286 284 287 292 285 284 282 280 282 287 288 289 290 291 292 293 293 295 294 294 293 289 289 290 294 297 298 298 298 297 296 297 299 299 299 296 296 298 298
298 298 298 298 298 298 298 298 298 297 297 294 292 294 298 298 299 296 300 299 293 292 290 284 280 280 281 290 285 290 292 287 287 289 284 291 291 291 287 289 289 286 290 286 288 287 288 288 284 285 289 285 287 284 279 281 287 288 289 290 292 291 292 293 293 292 293 294 295 294 291 292 296 298 298 298 297 297 298 298 298 298 297 297 297 297 296
298 298 298 298 298 298 297 297 298 296 294 294 295 298 299 296 296 297 297 296 286 285 285 285 285 280 280 282 281 285 293 289 284 287 283 287 293 288 287 283 286 283 285 292 286 286 285 285 287 283 280 286 283 280 281 284 286 288 289 290 291 291 291 291 291 292 294 295 296 294 295 296 294 294 295 295 295 296 296 297 298 297 296 296 296 299 297
297 298 298 299 298 299 299 297 297 295 292 293 293 297 297 298 297 299 300 299 294 285 284 284 284 281 281 277 278 284 292 286 288 288 287 286 286 290 288 285 280 283 289 287 283 286 283 289 285 279 284 281 280 283 284 287 287 289 289 289 287 290 290 291 291 293 294 296 295 295 294 295 293 293 294 295 295 296 296 297 297 297 296 296 297 295 296
298 298 299 298 300 297 295 291 296 295 295 297 297 298 297 297 300 299 296 295 297 296 286 283 281 281 282 281 284 286 288 279 287 284 285 283 281 285 285 283 280 284 283 283 284 282 286 292 285 281 281 279 282 286 289 290 289 288 288 290 291 293 293 293 293 293 292 291 291 291 292 293 292 293 293 294 294 296 295 295 295 295 295 295 292 294 294
298 298 298 295 293 288 288 289 294 297 297 297 297 295 296 294 289 289 289 287 292 291 288 288 283 284 289 284 279 287 286 282 286 281 282 285 282 282 284 281 281 282 278 280 283 289 287 284 282 281 282 287 289 290 289 289 289 290 293 293 293 294 293 292 292 292 292 290 290 290 292 291 291 292 292 292 293 292 290 292 296 297 298 294 294 296 296
298 297 295 294 290 287 287 292 300 298 297 298 297 290 287 290 287 283 284 286 287 283 288 285 282 285 283 282 283 289 285 282 281 282 278 283 281 277 282 277 283 283 279 280 282 291 281 282 282 281 280 285 286 287 288 290 292 294 295 296 295 294 294 293 293 291 289 289 291 291 291 290 289 290 291 291 291 293 295 295 296 297 292 296 295 296 295
295 290 288 289 288 290 295 298 300 297 295 289 291 288 283 287 283 280 287 282 281 284 286 281 286 285 286 282 281 281 289 284 278 278 279 281 288 279 281 281 282 280 275 276 280 288 280 277 282 281 280 285 284 288 290 291 291 292 292 293 293 294 294 294 294 293 293 293 293 293 293 292 292 290 290 290 290 292 293 295 297 295 296 296 296 295 294
292 291 289 287 291 294 295 297 297 295 289 286 286 286 284 280 284 285 282 280 279 281 287 284 286 284 285 285 284 280 287 290 288 288 284 278 285 285 281 277 285 277 276 276 283 285 283 280 279 278 280 284 286 287 289 290 291 290 292 292 292 294 294 294 293 294 294 293 292 291 292 291 291 290 290 290 291 292 294 294 294 295 295 296 296 296 297
292 292 293 295 295 295 295 293 291 287 287 287 281 277 281 281 283 282 283 277 278 281 283 284 280 281 281 284 284 285 284 289 286 284 282 277 284 282 279 280 282 277 274 281 284 281 281 277 277 278 285 285 286 288 290 289 290 291 292 294 293 293 293 293 292 293 293 292 291 291 291 290 289 289 289 289 289 290 292 292 292 293 294 294 295 296 296
297 298 298 293 291 289 290 284 288 286 278 277 277 274 279 276 279 277 279 283 286 283 283 289 286 288 289 290 285 287 284 289 283 283 281 278 284 283 280 279 278 273 278 284 282 279 277 277 277 280 285 287 287 287 291 291 291 291 290 291 291 292 292 292 291 292 293 293 292 291 290 290 288 288 288 288 289 289 290 290 291 292 292 292 293 292 295
295 294 290 288 285 286 286 274 286 281 278 279 276 272 275 275 278 280 278 280 282 281 284 281 282 283 279 287 284 284 285 287 287 285 282 284 281 278 277 275 276 283 286 281 280 276 277 279 280 282 285 287 288 288 289 289 290 289 288 289 291 291 292 292 292 292 292 293 292 292 291 290 289 288 288 287 287 287 288 289 290 290 291 292 291 292 292
288 286 286 284 280 284 280 273 285 279 273 276 279 277 278 275 278 280 279 284 284 281 285 286 284 284 282 286 286 286 284 280 286 280 277 281 278 279 276 276 280 281 278 276 277 278 279 278 283 284 285 285 286 287 288 287 287 287 288 290 291 291 292 291 291 292 292 292 291 291 290 290 289 288 287 287 287 287 287 287 289 289 290 291 291 291 292
285 283 282 277 273 280 279 275 277 275 280 282 280 282 281 282 282 281 285 287 284 284 284 284 286 285 282 286 281 281 284 284 280 281 282 281 276 274 280 284 283 277 276 277 274 274 275 280 282 283 285 286 286 287 287 287 288 290 290 288 289 291 292 292 291 292 292 291 291 290 290 290 289 288 287 287 287 287 287 288 289 290 290 290 290 291 292
285 287 285 282 276 280 283 275 277 281 282 283 284 285 284 284 285 285 286 286 284 286 285 287 286 285 281 282 283 283 284 283 278 280 283 277 276 279 284 279 274 275 273 272 273 276 278 282 283 284 285 286 287 288 288 288 287 288 290 291 291 291 292 292 292 292 292 292 291 291 290 290 290 290 289 288 287 288 288 288 289 289 289 289 290 291 292
281 285 284 275 274 279 277 281 285 285 285 285 285 286 286 287 284 283 286 287 287 287 285 285 282 284 282 287 286 281 281 282 278 279 282 279 281 277 276 275 274 276 277 274 275 280 282 283 284 284 285 288 289 288 289 289 290 290 290 290 291 291 292 292 292 292 292 292 291 291 291 291 290 290 289 288 288 288 288 288 289 290 289 289 290 291 291
286 284 279 279 281 281 281 284 284 281 284 285 286 285 285 284 283 284 287 289 287 286 287 285 283 283 279 283 280 279 276 281 275 275 280 279 274 272 272 271 273 272 277 279 279 282 283 284 285 285 286 288 290 290 290 291 291 290 290 291 291 292 292 291 291 291 291 291 291 291 291 291 291 290 290 289 288 287 289 289 289 289 289 289 289 289 290
283 282 284 281 280 282 285 285 283 281 283 284 284 283 284 284 283 285 289 286 286 286 286 285 286 282 281 280 276 277 276 279 277 278 276 274 275 276 275 272 274 275 277 281 282 283 285 285 285 285 285 287 288 290 290 290 290 290 291 291 292 292 292 291 291 291 291 291 292 291 292 291 291 290 290 289 290 290 290 290 289 289 288 289 288 288 288
286 283 283 286 281 281 283 278 279 279 281 282 283 283 283 283 284 284 290 287 286 284 282 279 281 280 278 277 275 272 274 280 277 276 276 275 278 277 275 273 275 279 281 284 285 286 285 286 285 286 285 285 290 289 289 291 290 290 291 292 292 292 292 292 292 292 292 292 292 289 291 291 291 291 291 291 290 289 288 288 289 289 288 288 289 288 287
282 280 280 284 286 285 285 284 284 283 283 284 284 285 286 283 285 287 289 287 285 281 279 282 281 278 276 273 275 278 280 278 276 277 274 278 280 276 276 277 280 282 284 284 284 286 284 282 282 283 286 288 289 290 291 291 291 291 290 291 291 291 292 292 292 292 292 291 291 292 291 291 292 292 291 291 290 289 288 288 288 289 289 289 289 289 288
Wind_Speed
27 27 27 27 28 28 27 28 26 26 28 12 9 9 4 5 4 4 6 7 8 7 7 0 2 4 5 6 6 1 5 6 2 4 4 6 3 5 6 6 5 6 6 6 6 6 7 6 8 9 5 7 8 6 5 6 7 8 7 9 4 1 4 8 13 14 16 19 18 18 18 17 18 17 16 14 15 15 14 14 11 11 12 11 11 13 12
27 28 28 27 28 28 28 29 28 24 21 11 11 8 4 3 4 2 5 6 5 6 4 3 2 3 2 3 7 1 6 5 6 6 3 4 3 4 5 6 6 8 4 5 8 6 5 5 7 8 8 4 7 6 3 5 5 8 6 6 6 4 3 7 10 9 10 11 11 13 14 14 12 10 9 10 11 11 11 11 9 10 13 17 14 15 11
27 28 27 27 28 29 30 30 29 27 26 18 7 6 6 5 3 1 3 5 5 4 5 5 3 5 5 6 7 5 6 3 3 6 8 2 6 5 6 5 5 4 6 7 7 8 8 7 6 9 8 7 2 5 2 5 9 4 8 6 5 7 8 8 9 10 11 10 7 6 5 6 5 7 9 10 12 14 11 10 10 12 14 17 12 13 12
27 27 27 27 28 29 29 30 29 28 26 23 10 6 7 4 3 5 3 4 1 2 2 1 6 4 5 5 7 6 7 4 5 5 7 6 7 6 8 8 7 8 8 9 8 9 9 9 6 7 7 8 9 4 3 3 10 4 4 4 7 7 9 10 11 12 14 14 13 12 11 11 12 13 15 15 15 15 15 13 12 14 13 14 14 15 15
27 27 27 26 27 28 28 29 30 28 27 21 8 7 4 4 3 3 4 6 3 3 0 3 3 2 4 3 2 4 5 5 3 7 5 3 3 6 6 6 6 4 6 7 8 9 10 9 10 10 10 10 11 12 10 6 10 8 5 7 6 8 9 13 15 19 20 22 22 20 17 17 17 19 19 19 21 20 19 14 16 15 14 17 13 16 15
25 27 28 27 27 28 28 28 29 30 29 26 9 4 6 3 2 2 3 4 3 4 0 6 6 4 4 5 2 7 8 6 5 3 6 5 5 4 3 6 7 6 7 7 7 8 9 8 6 8 10 10 11 10 12 14 7 6 9 9 8 8 10 13 15 19 20 21 21 19 18 18 19 22 21 23 22 21 18 15 20 19 15 18 15 18 16
24 25 26 27 27 27 28 29 29 30 31 24 7 6 3 3 2 1 2 4 2 3 7 7 7 8 6 5 4 7 7 7 5 3 5 4 5 6 5 7 9 10 8 6 8 9 8 6 8 9 9 11 10 9 11 12 13 12 12 11 7 7 11 14 14 19 21 22 21 19 20 18 19 21 24 25 24 22 22 23 22 22 18 17 17 18 19
24 25 24 25 25 26 27 29 29 30 32 20 7 8 6 5 6 2 2 6 6 2 4 5 5 7 5 2 5 5 5 7 7 4 4 3 6 5 6 8 10 9 10 10 10 10 11 12 10 9 11 10 9 11 11 10 10 10 10 9 9 8 10 10 12 13 17 20 17 18 19 19 21 22 25 25 22 22 22 22 16 20 15 15 17 17 17
23 24 24 24 24 25 26 27 28 29 30 7 8 7 7 4 4 3 6 7 2 3 5 5 5 5 5 6 4 3 5 7 4 6 5 8 7 7 9 10 10 10 11 12 12 12 11 11 12 10 9 10 9 10 8 11 11 11 10 8 9 8 10 11 13 13 16 17 16 16 19 20 21 24 25 21 19 16 14 13 9 11 14 14 12 15 16
22 22 23 24 23 23 24 24 26 28 28 7 7 6 7 5 2 4 4 5 1 6 3 6 4 5 2 6 5 5 7 4 4 5 8 9 7 7 8 9 9 9 11 12 10 11 10 9 12 12 13 14 15 14 14 13 13 11 13 11 12 11 10 11 11 14 16 19 16 17 13 13 17 23 16 13 20 20 20 20 21 19 16 15 17 17 16
21 21 22 22 23 22 22 23 23 25 18 10 8 6 7 7 6 6 5 6 5 6 5 6 8 2 5 4 7 6 6 7 4 4 2 1 5 4 6 7 8 8 10 11 10 11 10 12 13 14 16 17 18 16 16 20 17 16 12 10 10 12 13 11 10 13 14 19 16 13 11 16 20 9 10 14 14 14 16 14 14 18 16 14 15 16 19
20 20 20 21 21 21 21 21 22 22 18 10 7 4 5 7 7 6 4 6 6 5 5 6 6 5 4 6 5 6 7 6 7 5 9 8 9 8 9 9 8 8 7 6 7 10 13 14 17 17 19 20 21 21 22 21 19 17 15 15 13 13 13 13 11 12 15 13 12 13 17 19 11 13 15 16 18 18 20 19 19 18 17 16 15 20 22
19 19 19 20 20 20 21 21 21 20 20 12 7 5 6 7 6 6 4 5 7 7 5 6 4 5 6 6 6 7 6 7 7 7 8 11 11 10 7 7 8 10 9 11 11 12 12 13 13 14 16 16 18 21 23 24 22 21 17 18 16 14 14 12 12 12 11 13 12 15 18 12 14 15 14 15 16 16 18 18 18 19 20 20 19 18 18
18 18 18 18 18 19 19 20 19 19 20 17 8 5 5 7 6 5 3 4 6 7 6 8 11 8 5 6 6 8 7 8 8 8 10 7 10 10 8 8 9 8 9 8 9 9 9 8 8 7 9 10 12 14 16 18 19 20 21 20 18 19 16 14 15 12 15 14 16 18 16 19 19 14 9 6 8 6 6 11 11 14 11 13 16 16 14
17 16 17 17 17 17 18 18 17 18 18 18 9 4 5 6 6 6 5 5 7 9 9 7 6 9 5 7 7 7 6 6 6 7 8 8 8 7 6 6 6 8 7 7 7 6 7 7 8 8 8 8 8 8 8 9 10 14 15 15 16 17 17 11 15 12 14 15 16 13 14 15 11 12 2 2 3 4 0 3 11 13 16 7 7 7 10
16 15 16 17 17 16 16 16 16 17 16 18 9 5 4 5 5 5 5 4 5 7 3 8 5 7 7 7 6 7 6 5 6 8 9 8 9 10 9 4 5 5 8 8 8 7 6 7 10 9 9 8 10 9 7 9 10 10 11 13 15 16 17 13 14 14 13 15 15 14 14 12 10 6 5 3 4 7 6 5 12 6 6 3 3 8 9
15 15 15 15 16 16 15 15 14 14 14 15 8 6 3 5 5 5 6 5 5 8 10 8 6 5 6 7 8 7 5 6 7 6 6 6 7 9 9 10 8 6 9 8 8 8 9 10 10 11 11 11 11 9 12 10 12 13 13 16 18 17 12 13 14 15 14 14 14 15 10 11 9 12 1 3 3 7 4 6 6 7 6 5 7 8 9
15 15 15 15 14 14 14 13 13 13 13 16 10 6 5 4 5 6 6 6 6 9 7 4 7 5 6 8 7 8 6 6 8 7 7 8 9 9 8 1 4 7 8 8 7 7 9 9 10 10 11 9 11 12 12 10 12 11 12 11 10 10 11 12 16 14 15 16 13 11 10 9 13 7 4 1 4 5 7 12 7 6 10 10 5 9 9
14 13 14 15 14 14 13 13 13 12 12 13 10 6 1 4 5 4 5 6 6 6 5 2 5 7 8 8 8 7 7 7 7 6 6 7 6 9 5 7 5 5 7 7 6 7 8 9 9 9 10 9 7 11 10 11 11 11 13 12 13 12 10 11 12 13 13 14 15 12 12 3 2 9 13 5 4 9 13 7 11 14 13 10 10 10 9
14 14 14 14 14 14 14 13 13 12 11 12 9 6 6 5 3 4 5 6 6 9 9 10 9 10 7 9 8 8 8 8 7 6 6 7 3 5 7 8 8 8 8 7 9 7 9 10 10 8 11 11 8 4 9 13 13 14 12 15 12 11 10 11 12 9 9 9 13 11 12 2 1 1 8 3 4 6 7 11 14 14 14 15 13 11 9
14 14 14 13 13 13 13 13 11 12 12 11 9 6 6 2 3 2 3 5 6 8 7 2 4 8 8 9 8 9 9 9 9 9 8 8 5 4 6 3 2 2 4 4 7 7 5 9 10 8 8 9 9 6 10 10 13 14 15 13 14 10 10 10 11 6 12 12 11 9 5 2 5 8 8 5 7 11 13 12 12 11 11 13 12 12 10
14 14 14 14 14 13 13 12 12 12 11 11 12 6 7 4 3 3 3 4 6 8 9 15 15 13 12 12 12 11 11 11 12 10 9 8 7 9 8 10 10 7 5 5 6 7 7 7 7 8 10 10 8 11 12 12 13 10 12 11 13 6 10 8 13 6 6 8 9 10 13 14 13 13 15 15 12 11 11 7 10 10 9 9 10 12 13
14 14 15 14 14 13 13 13 14 12 11 9 9 7 7 6 5 3 4 7 7 10 11 12 12 11 11 13 11 8 9 10 9 10 10 10 9 9 10 10 11 8 7 7 10 10 10 9 10 8 11 10 10 12 14 12 12 11 12 10 13 14 13 10 8 11 11 15 16 14 15 16 17 15 13 13 13 7 4 7 10 10 8 8 8 12 13
15 14 15 14 13 13 13 14 13 12 11 9 8 7 7 6 6 6 6 6 6 9 9 10 6 6 5 3 1 4 7 8 9 9 8 8 10 9 9 9 8 8 6 7 3 6 6 7 10 8 12 10 10 12 12 13 12 12 13 13 11 13 11 11 10 9 11 11 8 12 13 13 14 15 15 10 10 1 3 4 4 9 13 10 11 11 12
16 15 15 14 14 13 14 14 13 12 11 10 9 8 7 7 6 5 5 5 4 6 7 5 8 6 7 1 4 6 8 8 7 9 9 10 11 11 11 9 5 7 10 8 2 6 6 9 9 8 13 10 8 12 11 13 13 11 13 13 12 10 5 5 10 11 11 13 15 15 17 18 18 16 13 3 5 4 3 5 10 13 10 9 9 11 10
15 16 15 14 13 13 13 14 12 11 11 10 9 8 7 7 6 5 5 6 6 4 6 6 5 4 3 9 10 10 10 9 10 11 12 13 14 14 15 13 13 11 10 8 9 10 9 9 10 10 11 11 8 11 12 12 15 14 16 16 13 13 8 10 7 11 14 17 17 18 20 19 20 17 7 4 7 6 7 5 9 15 13 9 9 8 9
15 15 15 14 14 14 15 14 14 12 10 10 8 7 8 8 7 7 7 6 6 6 7 8 7 7 8 13 12 10 10 10 8 10 11 13 14 14 14 14 14 11 11 11 10 9 7 9 9 12 11 11 9 13 13 13 13 12 14 15 14 13 14 14 14 12 12 12 13 11 10 7 9 8 6 2 6 6 8 8 9 12 13 8 10 10 10
16 15 15 14 14 16 16 16 14 13 12 11 10 8 8 8 8 8 7 6 7 7 8 9 9 11 13 16 8 7 7 8 9 10 11 13 15 14 14 13 13 12 10 10 10 9 9 10 12 9 8 9 10 12 11 11 12 13 15 14 11 13 15 13 13 11 10 11 13 10 11 14 13 11 10 11 12 9 11 11 10 9 11 7 9 10 11
15 15 15 16 17 17 16 15 15 14 14 12 9 9 8 9 8 8 7 6 7 8 8 9 10 10 8 8 9 9 8 8 8 9 11 12 13 13 12 13 13 12 11 8 10 10 8 10 8 9 9 4 4 9 8 11 9 13 13 12 12 13 15 16 17 19 20 18 17 14 13 13 12 12 13 12 11 9 10 11 13 10 7 7 7 7 7
16 16 16 17 18 17 17 16 16 15 13 9 7 6 6 3 3 3 3 5 6 5 6 7 8 5 9 9 11 9 9 7 9 11 13 12 13 11 11 12 11 7 8 7 5 9 10 9 9 10 13 6 4 4 6 10 13 14 15 15 15 12 9 12 17 17 15 13 14 14 15 16 11 12 11 11 8 5 6 7 11 12 8 7 6 5 4
16 16 18 18 18 18 18 18 16 14 10 6 5 4 4 2 5 2 2 1 2 4 5 5 8 8 10 8 8 9 8 9 9 10 11 10 10 11 11 10 10 10 9 8 9 10 6 8 9 11 10 13 10 9 10 11 13 14 16 16 13 13 11 9 8 11 14 13 12 15 16 13 12 12 13 7 3 4 5 8 15 11 2 5 3 3 3
17 19 19 19 19 19 19 19 16 12 7 6 7 4 6 3 4 2 2 2 3 3 4 6 6 5 5 6 6 6 8 8 9 8 7 7 8 7 9 8 9 8 8 9 8 7 9 10 11 12 13 7 5 8 11 13 15 17 17 15 14 14 14 12 11 14 11 10 11 14 14 13 11 10 10 7 8 6 6 12 14 8 3 2 4 4 4
19 19 20 20 19 19 18 17 14 8 4 3 6 8 2 6 4 2 5 4 4 3 3 5 7 5 5 6 8 9 6 6 7 5 7 3 7 5 7 8 8 9 7 9 8 10 7 9 10 13 13 11 9 8 10 13 16 17 18 18 17 15 15 13 13 11 10 12 14 14 13 12 12 9 8 8 9 8 9 12 10 6 6 6 6 5 4
20 20 21 20 19 17 15 13 11 8 9 5 5 5 4 10 5 4 4 3 4 4 3 4 5 6 7 6 9 2 3 6 7 6 8 4 5 6 7 9 6 8 6 10 9 7 8 8 11 13 9 9 8 8 11 14 17 17 18 16 16 14 13 9 7 7 8 9 6 3 5 12 13 8 9 10 10 9 8 9 9 8 6 5 6 5 6
21 21 21 21 18 15 14 12 5 6 5 4 3 2 4 5 6 2 3 3 3 3 4 5 4 8 8 7 8 4 3 7 8 7 8 7 5 9 7 8 6 8 5 4 8 9 9 10 7 8 11 9 8 10 11 15 17 17 15 14 7 8 11 10 8 6 8 7 8 7 5 9 9 9 9 9 8 8 9 9 8 7 7 6 5 7 10
21 22 21 19 21 15 4 5 6 6 5 3 4 7 6 7 8 8 7 6 5 5 5 5 4 8 7 9 8 3 5 9 8 8 9 6 7 6 6 6 11 9 8 7 9 8 11 7 2 7 9 10 10 9 11 14 17 15 14 7 3 6 6 10 12 10 9 9 9 9 7 5 7 7 8 7 7 7 7 8 8 7 7 7 4 8 7
23 22 23 22 12 7 6 2 1 2 5 6 9 14 13 7 5 6 6 6 6 5 5 6 8 8 6 7 4 3 6 9 7 8 8 7 8 4 7 6 9 5 6 9 9 11 10 6 6 10 9 12 11 11 14 14 12 8 9 8 5 9 12 10 10 10 11 12 6 7 5 4 6 6 8 8 8 8 8 8 8 7 6 2 6 6 8
24 25 14 6 5 3 3 1 3 3 6 8 6 6 4 5 3 3 3 5 3 3 4 4 8 5 3 5 9 7 7 9 8 9 8 6 7 7 4 6 7 5 10 8 8 7 7 5 7 9 10 10 14 15 11 10 5 5 9 8 7 6 4 5 3 6 5 3 7 7 7 6 7 8 8 9 10 7 4 6 7 8 3 7 7 5 6
22 8 4 5 4 3 3 6 4 2 5 4 4 3 3 2 3 3 3 3 2 5 2 4 5 3 5 7 8 6 7 9 9 8 9 5 6 8 5 9 3 5 8 9 4 2 6 5 7 8 10 9 5 6 8 7 9 6 5 4 3 2 5 2 4 7 8 9 8 9 8 8 9 9 8 7 8 8 7 6 5 3 5 9 11 7 7
7 7 4 4 4 5 7 2 6 6 5 4 3 3 4 2 3 5 2 5 4 2 1 6 3 7 7 9 10 10 5 7 9 11 10 9 3 8 4 6 5 5 8 9 4 4 5 7 6 7 8 4 5 7 7 9 9 5 7 8 6 2 5 5 7 8 9 9 10 9 9 9 9 7 7 6 7 7 6 4 3 7 10 11 9 9 8
7 7 6 5 7 7 7 9 7 4 2 3 2 2 2 4 2 1 2 5 4 3 2 6 6 7 6 7 8 10 6 6 7 6 7 9 3 5 6 7 2 6 8 8 1 2 4 7 6 8 5 5 5 6 10 7 4 6 5 8 6 6 7 6 8 8 8 10 10 10 10 11 9 8 8 7 7 7 8 10 10 11 11 10 10 9 7
9 9 8 9 9 9 8 5 2 2 2 2 2 4 2 3 2 4 2 5 4 3 2 3 7 6 8 9 9 8 6 4 5 5 5 7 3 4 6 6 4 5 6 3 5 7 7 7 7 5 4 2 1 4 6 7 8 8 9 9 10 10 9 7 8 9 9 10 10 10 10 11 11 10 8 8 8 10 9 11 10 12 14 15 13 8 9
21 17 9 7 4 4 2 5 2 1 2 2 2 4 3 4 4 4 4 2 2 3 4 4 6 6 7 6 7 4 6 5 3 3 5 6 3 3 6 5 3 7 6 5 6 7 8 8 6 5 2 2 2 3 4 5 7 9 8 9 8 9 8 8 9 9 9 10 11 10 9 10 10 10 10 9 9 12 13 12 12 12 13 14 14 13 10
8 7 5 2 3 3 1 5 1 1 3 2 3 4 4 5 4 2 5 3 3 5 4 6 8 9 9 4 7 6 4 2 2 2 5 4 4 5 4 5 7 6 4 6 6 8 8 4 3 7 6 5 6 7 7 7 7 9 8 7 8 8 8 9 9 10 11 10 10 10 10 10 11 11 12 11 10 10 11 13 13 14 14 13 13 13 13
5 4 3 2 3 2 0 2 2 3 4 3 3 5 5 6 6 6 5 4 5 7 8 7 7 7 8 7 6 4 1 5 1 5 5 4 6 6 6 7 6 6 6 7 6 6 4 4 7 5 5 6 6 7 7 6 4 5 6 8 9 9 10 10 10 10 10 11 11 10 10 11 11 13 12 11 12 14 15 13 12 13 13 13 13 13 13
4 4 4 3 3 3 3 4 2 4 3 3 5 4 7 6 6 7 5 4 7 7 7 7 7 7 8 6 5 6 5 5 6 3 4 3 7 6 5 6 5 7 5 5 7 7 7 8 8 7 6 5 6 6 5 3 2 5 7 8 7 10 10 11 11 11 11 11 11 11 12 12 12 12 12 13 14 14 15 14 14 14 14 15 16 14 13
4 2 3 3 4 4 3 4 5 3 4 6 6 6 6 7 6 6 5 5 5 6 7 6 7 7 8 7 6 4 3 2 5 4 4 6 5 5 3 5 6 4 5 5 5 5 6 8 7 6 6 4 3 5 5 2 1 1 5 7 9 10 11 12 12 13 13 15 15 14 13 13 14 13 14 16 15 14 14 15 15 15 14 13 13 12 13
5 2 2 2 3 3 5 5 5 7 5 5 6 6 5 5 6 6 5 5 5 5 7 6 6 5 6 3 6 7 6 4 5 4 2 5 4 5 4 4 4 3 2 6 8 7 7 6 6 6 7 6 6 8 6 3 2 7 9 10 11 12 13 13 12 13 14 15 15 15 15 15 15 15 15 15 15 14 13 13 13 14 14 13 14 15 14
3 3 4 4 3 3 5 5 8 8 6 3 4 5 4 6 6 7 4 4 5 7 6 5 5 5 6 4 6 5 5 3 5 3 3 5 4 4 4 7 8 7 3 2 6 7 6 5 5 6 7 5 5 4 3 3 6 8 9 10 11 12 12 12 13 14 14 14 14 15 15 15 15 15 16 16 16 14 13 13 14 14 13 13 13 13 13
4 4 3 5 6 7 7 7 7 7 6 5 3 4 3 6 7 6 2 4 3 7 5 6 3 4 5 5 5 5 5 3 4 4 6 6 5 5 5 8 5 7 7 6 6 7 4 2 3 4 3 4 2 1 4 6 5 7 9 10 10 11 11 13 13 13 13 13 14 15 16 14 14 14 15 15 14 12 12 12 11 10 9 8 9 9 10
2 4 5 5 8 7 5 7 6 7 6 5 5 5 5 7 6 6 4 5 6 5 5 5 3 4 5 5 5 4 3 4 5 5 4 6 4 6 7 7 8 9 8 7 6 4 3 3 2 1 1 2 2 3 2 5 6 9 9 10 11 11 11 13 13 13 13 13 13 14 14 14 13 13 13 12 12 13 13 12 11 10 9 8 8 9 10
3 5 6 5 7 8 8 7 7 7 7 7 8 5 5 7 5 5 2 4 5 5 5 3 4 4 4 5 4 5 4 4 4 5 6 3 1 5 7 9 11 8 7 7 6 3 1 1 5 4 6 4 10 8 8 8 9 8 9 9 9 10 11 11 11 12 11 11 11 12 12 13 13 12 11 11 11 11 11 10 10 10 9 8 9 9 8
Wind_Direction
5 3 0 357 354 352 350 350 350 352 349 355 351 315 279 9 28 57 354 346 301 286 276 268 260 271 22 343 262 269 231 263 322 283 264 284 239 277 266 273 279 265 288 297 297 291 284 287 277 288 294 285 69 94 324 51 291 295 264 263 97 353 255 266 263 269 263 262 260 258 258 263 266 255 251 253 257 266 276 278 293 288 284 273 266 258 272
4 3 1 357 355 353 351 350 350 349 359 345 312 293 353 346 13 137 60 343 309 282 312 320 333 340 29 307 302 211 297 306 274 262 282 276 303 291 303 294 248 271 272 266 265 282 281 268 263 254 246 259 41 13 343 32 309 288 1 296 50 309 231 269 281 278 274 264 250 247 240 242 248 268 283 299 294 287 291 298 286 270 258 261 264 265 266
5 3 1 359 356 354 352 351 348 348 347 348 315 329 335 296 191 285 54 12 328 333 16 331 318 325 304 316 295 276 242 195 302 324 297 300 265 285 262 265 304 267 259 265 275 271 263 274 267 291 307 290 119 108 20 284 262 303 54 355 323 277 281 281 273 276 278 272 262 266 294 297 313 310 292 276 275 277 280 268 268 265 264 263 262 270 275
7 5 3 1 359 356 354 350 346 346 344 347 331 330 297 8 323 358 314 18 343 106 8 342 319 310 309 304 286 282 283 204 189 266 267 275 291 272 289 287 263 265 269 263 258 262 247 246 262 260 256 244 235 270 66 321 276 67 103 307 284 270 274 263 258 264 265 271 285 300 318 294 284 289 291 280 258 255 267 276 269 262 269 271 268 275 286
9 8 5 4 1 357 354 351 346 344 338 342 331 300 349 299 5 344 338 313 194 357 33 356 306 319 5 286 359 286 275 294 270 131 290 155 265 290 265 278 280 286 289 282 279 275 279 262 263 256 263 259 253 248 265 286 285 329 320 274 267 263 264 254 257 258 263 273 276 283 286 280 278 274 270 273 275 275 266 260 266 279 286 273 273 277 281
9 9 8 6 3 360 356 353 348 344 338 333 316 297 3 328 66 348 32 304 327 328 48 358 320 292 247 267 306 278 282 276 256 209 248 310 264 262 249 243 251 268 278 286 277 282 276 274 262 269 260 277 286 279 240 240 252 202 252 252 242 258 259 257 259 260 265 269 276 281 281 278 277 275 274 272 272 270 268 264 267 274 271 275 289 291 285
9 8 8 6 5 3 360 355 350 346 339 328 328 359 73 22 345 88 8 270 342 335 339 317 306 292 274 301 284 271 277 271 281 299 302 288 281 254 267 268 269 268 274 274 274 269 276 270 281 277 292 295 304 290 306 284 260 243 233 235 229 243 252 264 262 269 268 266 268 272 276 278 276 272 270 267 265 264 264 267 267 266 267 272 275 278 278
10 9 7 7 5 5 3 358 353 345 340 324 46 27 348 27 338 354 275 263 281 262 293 281 272 271 143 251 259 303 285 281 284 255 256 274 278 297 277 262 258 249 250 261 271 278 275 286 285 291 290 278 267 280 282 285 281 277 271 271 241 248 259 260 269 273 271 270 273 272 267 267 267 267 266 263 264 269 270 270 270 274 274 269 268 273 275
10 10 9 8 6 5 5 1 356 347 341 12 24 53 15 9 1 339 310 298 263 263 249 258 274 289 231 224 245 239 278 280 304 290 304 279 267 266 279 294 299 301 284 265 263 271 289 301 290 279 259 259 263 271 274 293 301 281 280 263 268 250 270 272 268 270 269 266 266 267 268 268 267 266 261 262 267 267 264 262 263 261 262 268 270 262 263
9 9 9 9 8 6 5 4 1 354 335 9 6 29 359 319 152 258 298 287 67 288 260 253 251 256 354 15 332 300 285 295 337 307 287 262 272 316 319 303 294 284 284 284 285 314 309 283 279 278 275 271 269 263 268 260 259 261 258 256 257 253 262 262 263 265 266 271 272 274 282 282 273 257 259 270 262 258 262 263 260 255 254 254 258 258 260
9 9 8 8 8 7 5 4 5 1 352 23 360 21 4 7 338 327 292 280 269 248 291 296 270 22 1 291 289 284 277 277 260 263 270 312 262 261 256 264 270 278 284 299 338 340 306 286 279 273 269 264 259 254 253 255 255 253 258 257 253 259 259 260 258 263 269 273 275 278 269 257 251 274 269 254 264 258 256 256 257 257 252 256 258 266 268
8 8 8 8 7 7 6 5 3 4 359 357 341 17 19 332 308 293 308 295 298 298 273 283 314 359 318 298 290 286 282 278 268 279 278 290 299 311 309 297 274 264 281 334 308 299 297 282 271 257 252 253 256 258 259 259 254 246 246 250 257 258 257 260 259 262 265 270 270 263 250 249 270 276 268 268 266 272 271 267 261 262 261 263 269 272 277
7 7 6 7 7 5 5 6 4 359 358 347 340 6 9 336 305 316 317 299 288 292 296 304 340 296 296 300 278 275 281 283 282 274 273 277 280 280 271 279 282 282 303 295 304 300 294 291 285 275 268 264 258 254 250 245 245 245 247 248 250 249 249 255 255 260 267 264 257 257 249 263 271 273 281 282 279 273 276 271 269 272 274 275 275 277 278
5 5 5 4 6 6 5 5 0 360 355 351 339 7 349 345 339 325 331 312 292 310 321 302 270 238 264 298 301 292 291 270 268 268 267 260 268 271 274 270 287 316 301 298 289 294 293 284 286 288 273 263 260 255 249 247 247 249 243 240 239 245 251 250 256 248 256 258 259 261 284 281 272 272 270 273 283 292 292 285 280 278 285 281 277 284 293
2 3 3 1 1 0 0 2 1 358 355 348 322 340 355 351 345 325 321 293 289 299 273 261 345 5 334 289 274 284 270 279 283 277 268 275 277 279 273 267 262 249 259 278 269 263 270 290 281 274 266 254 258 264 266 261 249 237 241 243 243 241 244 248 255 250 255 262 267 266 259 258 258 270 92 30 10 356 151 292 282 268 265 293 342 332 310
357 358 357 359 359 357 359 2 2 357 356 348 330 354 10 16 327 312 299 299 306 294 48 28 4 335 303 294 304 300 295 296 279 270 266 250 242 241 235 236 244 277 283 262 259 264 264 264 265 266 266 264 268 276 268 274 268 262 254 253 251 252 254 252 249 256 253 253 258 257 262 265 281 312 129 351 60 335 348 295 276 314 355 357 323 311 302
354 353 353 353 355 353 356 359 354 358 351 352 337 334 357 19 333 327 314 286 263 266 311 321 346 306 290 270 249 247 260 275 309 314 304 302 297 308 310 289 323 305 260 263 265 261 252 245 253 262 269 270 267 264 279 269 273 271 268 268 264 259 251 249 250 253 253 263 260 265 262 279 285 290 275 130 200 168 214 276 279 48 309 292 332 316 310
349 350 348 349 351 352 349 358 352 354 351 347 331 332 328 356 332 315 280 277 285 289 283 354 306 285 289 343 324 316 319 282 262 250 257 267 275 264 259 358 326 265 263 254 241 250 254 256 258 261 267 272 286 286 266 282 266 261 262 265 260 258 256 249 254 255 252 248 259 266 277 279 291 310 345 299 340 320 284 267 310 353 316 319 335 294 314
347 345 344 344 349 348 346 350 352 349 349 343 337 309 271 346 332 318 303 288 277 266 318 344 257 270 288 296 283 290 286 299 308 306 292 296 302 0 349 281 236 256 198 232 242 251 256 257 254 259 266 267 253 258 270 256 259 265 268 265 263 261 264 262 266 253 253 257 260 262 273 284 4 27 330 342 300 252 262 318 330 316 304 312 318 312 312
342 341 342 343 344 343 339 340 345 345 339 344 335 324 312 310 325 324 305 292 292 286 291 295 300 295 308 298 299 287 290 262 249 259 272 276 73 1 284 275 211 220 246 249 259 259 265 265 267 269 262 265 262 321 275 264 266 267 272 270 270 269 268 266 259 261 261 269 267 267 266 102 276 333 266 130 248 292 321 307 301 300 313 312 313 310 310
337 338 338 340 338 338 334 333 344 342 338 334 334 319 313 341 288 292 299 299 293 291 282 98 6 317 309 291 287 288 276 276 293 283 278 265 310 333 255 267 7 164 257 252 257 258 260 269 268 265 275 278 278 267 270 284 280 274 267 268 269 277 266 260 264 260 268 259 260 265 311 330 235 285 281 264 268 288 297 303 299 312 308 300 300 299 312
334 333 336 333 333 332 332 330 338 336 332 332 321 302 284 288 263 303 295 267 266 262 281 306 306 294 282 275 273 272 276 281 278 278 274 272 263 252 269 284 281 276 269 285 272 268 257 264 275 270 269 274 280 268 281 277 270 270 273 277 265 230 256 266 275 274 260 271 274 296 304 300 300 292 290 293 308 305 302 296 287 293 298 308 307 306 301
330 333 333 332 329 329 329 332 328 328 324 328 312 303 301 306 304 320 274 275 268 275 282 277 274 272 266 257 250 252 260 265 262 247 252 260 264 255 255 259 260 256 260 258 265 279 288 291 277 289 285 270 277 285 278 266 274 274 274 266 274 279 273 275 273 267 270 265 268 280 278 278 282 281 286 286 278 290 7 319 301 303 301 302 302 300 308
331 333 334 331 328 325 331 329 327 324 321 318 313 305 300 298 294 293 277 262 264 288 285 252 242 258 292 348 212 207 225 238 248 262 259 250 255 257 260 261 274 277 262 268 34 280 288 291 283 290 277 277 282 272 277 277 273 293 291 281 272 266 279 275 266 298 304 268 257 265 282 302 298 296 293 309 63 51 264 277 292 294 299 313 313 314 320
329 329 329 330 326 330 327 324 323 325 323 318 302 277 269 272 256 249 265 285 293 305 302 315 289 291 324 9 278 262 250 256 237 228 236 238 243 251 257 264 277 281 274 271 212 262 252 264 272 261 265 269 273 274 276 276 274 279 278 278 281 280 77 277 257 259 247 267 280 283 283 279 282 276 274 293 302 322 356 336 317 296 293 303 317 325 320
329 323 325 326 328 325 324 319 318 315 319 316 312 299 299 292 299 294 274 279 276 261 280 291 308 340 260 261 272 302 304 276 256 246 237 232 232 238 252 268 276 268 272 270 264 259 267 266 264 270 274 277 273 274 272 282 292 293 277 276 277 290 281 275 265 265 262 261 264 266 270 274 278 280 306 33 324 340 332 312 275 281 295 319 331 327 327
325 322 321 322 320 320 317 318 316 316 310 311 299 296 282 278 269 258 252 252 274 261 222 249 282 290 320 317 307 289 275 272 261 257 257 252 252 248 243 244 255 262 256 257 252 263 263 265 267 268 266 275 294 281 283 279 278 279 279 275 281 274 261 272 266 261 265 272 277 290 281 273 278 274 290 76 292 317 302 297 287 305 302 320 321 323 327
325 323 320 317 319 319 319 317 317 315 314 309 291 282 275 271 261 255 249 243 234 268 306 306 300 311 312 276 277 280 269 259 256 252 251 252 249 247 255 257 253 254 255 257 260 244 253 259 262 265 272 278 279 270 271 282 285 272 261 269 268 266 270 272 274 279 269 260 256 252 284 298 290 296 302 312 317 304 301 303 306 286 288 321 324 326 329
323 319 319 322 322 319 318 318 316 314 311 304 291 285 270 248 246 247 244 235 233 245 262 276 286 286 295 343 329 276 257 259 257 253 257 257 256 254 250 252 252 247 244 246 259 267 255 259 266 270 266 301 301 276 278 266 264 265 268 275 265 259 271 272 272 272 279 284 288 285 277 278 300 309 307 303 305 314 305 304 299 289 305 318 326 333 341
320 320 319 320 318 318 317 315 315 312 311 297 292 279 278 210 177 240 232 239 230 243 268 286 290 290 325 309 292 296 288 273 270 270 269 269 263 258 252 251 256 283 268 261 264 262 262 267 263 255 257 211 216 273 255 267 269 269 276 277 277 282 290 298 288 286 292 311 319 309 287 281 288 292 295 292 318 348 320 309 288 293 311 323 317 323 348
318 320 322 320 322 318 317 314 313 314 299 263 252 266 274 271 126 182 79 232 281 265 272 274 279 305 288 281 285 285 282 273 267 274 282 286 280 276 272 268 254 249 257 247 232 246 269 267 271 267 266 254 254 266 274 275 273 273 271 276 282 290 284 260 233 208 239 257 266 275 282 288 288 294 282 284 342 318 314 299 279 279 345 317 276 242 261
323 322 321 319 316 316 312 311 312 301 264 237 230 257 7 12 33 116 100 292 0 267 266 282 293 276 305 287 282 288 288 307 309 290 273 255 270 271 272 259 268 252 257 266 270 273 252 258 257 265 270 248 207 254 256 260 261 265 272 278 286 285 285 289 282 279 280 259 248 263 271 278 273 252 279 309 300 296 292 275 270 298 164 216 271 248 226
322 319 317 315 312 311 313 307 296 262 258 350 4 330 52 126 76 268 227 256 245 257 278 279 277 301 277 308 315 301 312 280 269 275 283 286 284 291 270 254 257 263 228 248 250 255 258 268 267 262 254 248 251 251 251 251 256 264 279 282 279 282 283 290 302 308 319 317 305 291 285 281 279 294 302 294 292 276 262 272 297 302 290 278 263 244 163
319 318 313 312 312 310 306 302 302 290 267 249 222 217 142 122 127 45 309 227 263 263 242 257 276 278 282 304 289 47 40 317 309 325 305 315 296 276 279 291 282 285 282 275 268 265 260 249 257 265 271 257 249 249 249 252 257 266 271 277 280 289 292 300 305 324 306 293 287 282 338 323 309 299 293 286 279 289 289 300 292 289 283 275 252 227 155
317 312 313 312 310 314 297 275 246 218 244 259 277 115 129 98 337 296 255 220 238 234 219 241 250 275 280 285 285 312 19 303 303 315 296 301 307 290 298 282 283 267 261 220 266 259 265 261 274 268 256 253 251 253 260 266 269 272 274 274 320 336 307 305 307 293 295 315 312 311 258 245 276 293 286 279 302 306 298 294 298 292 284 263 248 172 154
311 310 305 307 306 299 269 219 242 270 260 309 41 88 17 310 262 248 230 230 244 287 278 278 275 274 294 297 309 347 358 295 298 304 301 307 290 278 283 291 286 274 281 267 255 248 258 239 201 257 258 253 248 253 263 269 270 271 279 304 82 314 293 287 290 297 284 283 269 254 271 295 290 279 293 317 308 301 305 300 299 298 291 282 179 149 176
306 301 301 291 267 223 231 260 289 292 348 340 322 318 308 286 236 238 226 233 216 212 267 293 282 292 313 308 305 308 341 308 333 315 315 304 306 309 286 279 276 296 279 269 272 279 281 305 272 266 258 254 255 257 267 276 289 313 311 298 246 250 267 286 329 325 318 296 315 3 323 346 321 336 341 329 323 323 317 308 303 299 284 80 112 153 167
304 296 285 299 323 290 292 28 48 2 306 274 273 269 197 199 211 197 203 233 185 203 232 247 261 296 296 306 305 333 308 304 327 311 307 312 303 295 313 292 293 297 279 279 279 293 292 251 244 253 258 260 267 274 287 290 276 252 274 282 279 277 330 21 287 261 263 266 51 14 16 9 359 355 345 335 328 324 309 289 289 272 170 122 128 139 133
287 292 330 334 299 321 339 338 64 203 287 281 243 262 228 197 234 228 231 206 184 242 211 244 286 299 302 304 302 317 322 317 306 311 302 329 318 303 308 296 312 279 278 279 290 68 263 246 241 247 262 274 300 7 322 295 262 239 267 271 20 42 100 74 21 35 52 53 43 35 17 10 356 350 349 335 324 318 305 298 269 92 115 129 137 145 142
1 334 339 314 320 347 325 291 135 272 278 278 204 242 283 222 244 287 316 294 275 258 165 280 332 310 318 314 323 312 343 315 314 312 315 310 291 294 314 298 306 290 282 284 291 137 275 293 298 294 285 348 8 320 304 282 285 23 32 26 17 101 72 71 70 62 66 64 52 45 35 26 24 14 0 342 330 330 314 275 122 130 132 127 125 136 144
344 335 316 322 338 322 312 316 307 270 268 267 267 234 246 290 277 281 278 284 286 300 316 317 316 309 326 320 308 303 337 310 295 297 297 293 310 288 285 285 332 284 283 276 336 268 281 285 289 292 338 19 346 323 308 309 80 93 78 85 81 61 79 73 74 76 73 71 64 52 42 36 34 27 21 8 355 353 44 57 61 86 98 108 118 125 130
325 306 308 297 292 285 279 271 259 270 233 237 256 270 278 292 271 260 238 278 320 312 319 338 309 320 318 326 317 315 301 332 312 286 294 300 337 307 295 290 279 271 279 312 326 292 279 280 292 306 18 26 307 311 357 11 29 37 62 75 75 81 76 65 74 81 79 80 75 62 51 44 37 31 24 23 34 35 52 73 64 60 60 53 38 45 74
283 267 251 280 284 288 283 284 211 245 269 254 240 286 258 262 294 303 312 306 25 291 325 307 296 308 296 297 297 306 308 326 310 314 305 304 314 271 277 282 269 269 286 319 290 290 286 284 304 3 328 54 29 358 351 38 42 64 74 87 92 87 84 86 84 81 78 76 73 68 61 50 40 32 26 32 52 61 56 52 49 51 47 48 44 27 27
311 302 257 287 294 277 268 278 173 187 264 234 253 270 291 287 284 270 280 310 318 290 334 325 328 326 323 345 324 320 305 237 187 278 279 293 297 301 291 275 275 303 309 272 275 278 294 341 15 330 8 50 36 33 18 44 68 79 73 82 95 97 96 97 97 96 92 84 78 74 67 55 47 41 33 35 42 57 55 51 45 46 44 46 42 36 22
316 321 319 290 248 271 284 282 219 176 245 263 263 277 285 289 304 300 309 342 304 313 324 317 322 326 317 331 309 284 325 306 327 283 299 312 286 274 273 278 297 299 296 295 295 300 329 357 360 9 17 36 44 42 51 55 48 85 106 108 106 108 106 100 93 88 81 78 75 73 66 59 50 48 42 36 40 46 46 43 41 47 47 47 43 39 34
311 317 320 309 293 266 236 257 252 277 262 240 265 280 291 302 306 306 326 325 303 309 310 323 317 316 308 321 305 312 316 316 309 306 315 296 292 285 285 296 285 289 275 278 307 335 358 357 357 9 15 47 57 63 67 62 62 109 118 108 109 106 103 102 98 94 94 92 86 76 69 61 54 51 50 46 46 47 48 47 46 52 53 52 50 46 40
288 263 277 286 273 264 214 261 268 278 300 298 304 308 309 308 308 304 313 319 306 320 315 312 315 315 309 309 304 285 260 270 286 297 285 283 292 303 287 287 285 288 307 335 326 341 357 360 358 357 357 15 88 113 106 98 318 180 119 111 105 108 111 103 97 97 96 93 87 83 75 69 64 61 59 58 53 51 53 53 51 49 52 54 52 49 43
283 289 289 263 253 244 246 249 272 279 271 273 288 290 301 309 301 301 326 321 303 299 301 318 308 317 302 288 272 290 309 291 293 292 279 293 287 276 292 287 310 316 324 338 331 349 1 4 353 336 333 344 60 98 115 132 166 109 105 107 107 100 94 95 98 97 94 92 91 86 82 78 74 69 65 64 62 56 53 55 57 57 56 54 52 53 50
293 287 278 265 261 280 287 300 296 291 297 286 276 280 290 294 303 311 334 298 294 309 315 306 317 315 296 322 295 290 299 329 297 300 298 278 288 293 308 316 318 320 20 12 329 353 4 348 340 329 341 25 73 89 97 77 89 92 100 101 100 99 97 94 94 95 93 91 90 89 87 84 81 79 77 74 71 64 61 59 60 59 56 56 57 57 52
253 242 239 248 268 271 263 263 269 279 283 285 284 293 309 301 305 320 308 283 321 311 312 292 237 245 292 303 299 305 300 308 301 305 290 293 291 295 297 294 314 321 333 353 343 346 7 356 329 335 351 360 16 64 119 130 135 118 103 99 99 99 99 100 98 94 90 88 88 89 91 88 83 79 79 81 83 85 78 70 64 59 52 47 49 49 49
228 253 256 256 264 284 299 289 292 293 290 294 304 305 311 304 318 317 352 318 309 313 295 292 338 308 299 291 295 298 332 342 283 273 293 305 328 309 301 297 308 319 325 334 330 347 359 342 304 299 316 297 160 133 229 209 142 107 103 98 98 98 96 94 93 94 95 94 92 90 87 88 90 93 95 92 88 84 82 79 77 78 79 69 58 60 60
242 244 256 253 248 253 261 275 280 284 295 292 283 289 288 295 326 308 274 286 298 283 303 325 306 294 295 284 304 307 307 287 288 306 294 303 7 306 313 319 317 313 319 324 327 354 51 262 284 274 272 177 154 154 128 104 101 102 97 95 95 93 94 93 94 94 94 93 92 90 89 87 87 85 86 86 87 84 81 80 83 85 81 77 78 79 77